| time (UTC) | temp F | wind direction | speed MPH | gust MPH | rain 1hr in | rain 24hr in | rain mn in | humidity % | barometer mb |
| 20260507194554 | 61 | 242 | 3.0 | 13.0 | 0.00 | 0.07 | 0.02 | 34 | 1007.7 |
| 20260507193044 | 60 | 251 | 4.0 | 18.0 | 0.00 | 0.07 | 0.02 | 36 | 1007.9 |
| 20260507191552 | 60 | 10 | 4.0 | 15.0 | 0.00 | 0.07 | 0.02 | 38 | 1007.9 |
| 20260507190057 | 59 | 348 | 5.0 | 14.0 | 0.00 | 0.07 | 0.02 | 46 | 1008.2 |
| 20260507184548 | 59 | 10 | 3.0 | 13.0 | 0.00 | 0.15 | 0.02 | 40 | 1008.2 |
| 20260507183051 | 58 | 107 | 3.0 | 14.0 | 0.00 | 0.15 | 0.02 | 36 | 1008.4 |
| 20260507181551 | 58 | 258 | 4.0 | 13.0 | 0.00 | 0.15 | 0.02 | 35 | 1008.7 |
| 20260507180050 | 58 | 63 | 5.0 | 13.0 | 0.00 | 0.15 | 0.02 | 39 | 1008.8 |
| 20260507174550 | 57 | 248 | 4.0 | 12.0 | 0.00 | 0.23 | 0.02 | 38 | 1009.0 |
| 20260507173055 | 57 | 303 | 5.0 | 14.0 | 0.00 | 0.23 | 0.02 | 40 | 1009.2 |
| 20260507171551 | 56 | 241 | 5.0 | 12.0 | 0.00 | 0.23 | 0.02 | 38 | 1009.3 |
| 20260507170051 | 56 | 38 | 5.0 | 12.0 | 0.00 | 0.23 | 0.02 | 39 | 1009.5 |
| 20260507164549 | 55 | 9 | 4.0 | 10.0 | 0.00 | 0.31 | 0.02 | 41 | 1009.5 |
| 20260507163049 | 55 | 23 | 4.0 | 12.0 | 0.00 | 0.31 | 0.02 | 40 | 1009.7 |
| 20260507161552 | 55 | 340 | 7.0 | 17.0 | 0.00 | 0.31 | 0.02 | 44 | 1009.9 |
| 20260507160047 | 54 | 330 | 5.0 | 12.0 | 0.00 | 0.31 | 0.02 | 45 | 1010.3 |
| 20260507154558 | 53 | 338 | 5.0 | 11.0 | 0.00 | 0.31 | 0.02 | 45 | 1010.4 |
| 20260507153053 | 53 | 11 | 6.0 | 13.0 | 0.00 | 0.31 | 0.02 | 43 | 1010.7 |
| 20260507151559 | 52 | 296 | 1.0 | 7.0 | 0.00 | 0.31 | 0.02 | 44 | 1010.7 |
| 20260507150056 | 51 | 85 | 6.0 | 11.0 | 0.00 | 0.31 | 0.02 | 46 | 1010.8 |
| 20260507144555 | 51 | 5 | 6.0 | 15.0 | 0.00 | 0.31 | 0.02 | 50 | 1010.9 |
| 20260507143055 | 50 | 115 | 3.0 | 10.0 | 0.00 | 0.31 | 0.02 | 53 | 1010.8 |
| 20260507141557 | 50 | 298 | 4.0 | 12.0 | 0.00 | 0.31 | 0.02 | 54 | 1011.1 |
| 20260507140109 | 49 | 26 | 4.0 | 10.0 | 0.00 | 0.31 | 0.02 | 56 | 1011.0 |
| 20260507134548 | 49 | 15 | 7.0 | 14.0 | 0.00 | 0.31 | 0.02 | 53 | 1010.9 |
| 20260507133054 | 49 | 355 | 6.0 | 15.0 | 0.00 | 0.31 | 0.02 | 54 | 1010.9 |
| 20260507131549 | 48 | 5 | 6.0 | 11.0 | 0.00 | 0.31 | 0.02 | 63 | 1011.0 |
| 20260507130051 | 48 | 325 | 4.0 | 12.0 | 0.00 | 0.31 | 0.02 | 65 | 1010.7 |
| 20260507124549 | 47 | 27 | 8.0 | 13.0 | 0.00 | 0.31 | 0.02 | 69 | 1010.7 |
| 20260507123049 | 47 | 58 | 3.0 | 12.0 | 0.00 | 0.31 | 0.02 | 78 | 1010.6 |
| 20260507121549 | 46 | 338 | 3.0 | 10.0 | 0.00 | 0.31 | 0.02 | 84 | 1010.7 |
| 20260507120052 | 46 | 339 | 4.0 | 10.0 | 0.00 | 0.31 | 0.02 | 86 | 1010.7 |
| 20260507114549 | 45 | 69 | 2.0 | 8.0 | 0.00 | 0.31 | 0.02 | 87 | 1010.6 |
| 20260507113049 | 45 | 11 | 3.0 | 10.0 | 0.00 | 0.31 | 0.02 | 89 | 1010.4 |
| 20260507111551 | 45 | 360 | 5.0 | 10.0 | 0.00 | 0.31 | 0.02 | 90 | 1010.4 |
| 20260507110056 | 45 | 10 | 2.0 | 7.0 | 0.00 | 0.31 | 0.02 | 90 | 1010.1 |
| 20260507104555 | 44 | 355 | 1.0 | 5.0 | 0.00 | 0.31 | 0.02 | 91 | 1009.8 |
| 20260507103052 | 44 | 5 | 0.0 | 5.0 | 0.00 | 0.31 | 0.02 | 91 | 1009.4 |
| 20260507101601 | 44 | 0 | 0.0 | 2.0 | 0.00 | 0.31 | 0.02 | 91 | 1009.5 |
| 20260507100047 | 44 | 17 | 1.0 | 4.0 | 0.00 | 0.31 | 0.02 | 91 | 1009.2 |
| 20260507094559 | 45 | 14 | 2.0 | 7.0 | 0.00 | 0.31 | 0.02 | 91 | 1009.0 |
| 20260507093050 | 45 | 348 | 2.0 | 5.0 | 0.00 | 0.31 | 0.02 | 91 | 1009.1 |
| 20260507091600 | 46 | 0 | 1.0 | 10.0 | 0.00 | 0.31 | 0.02 | 91 | 1009.0 |
| 20260507090108 | 46 | 0 | 2.0 | 8.0 | 0.00 | 0.31 | 0.02 | 91 | 1008.9 |
| 20260507084546 | 46 | 342 | 2.0 | 6.0 | 0.00 | 0.31 | 0.02 | 92 | 1009.0 |
| 20260507083050 | 46 | 332 | 0.0 | 5.0 | 0.00 | 0.31 | 0.02 | 92 | 1009.4 |
| 20260507081555 | 46 | 0 | 0.0 | 4.0 | 0.00 | 0.31 | 0.02 | 92 | 1009.3 |
| 20260507080049 | 47 | 0 | 0.0 | 0.0 | 0.00 | 0.31 | 0.02 | 92 | 1009.5 |
| 20260507074546 | 47 | 0 | 0.0 | 0.0 | 0.00 | 0.31 | 0.02 | 92 | 1009.4 |
| 20260507073058 | 47 | 0 | 0.0 | 2.0 | 0.00 | 0.31 | 0.02 | 92 | 1009.4 |
| 20260507071548 | 47 | 352 | 0.0 | 4.0 | 0.00 | 0.31 | 0.02 | 92 | 1009.4 |
| 20260507070131 | 47 | 0 | 0.0 | 2.0 | 0.02 | 0.31 | 0.02 | 92 | 1009.4 |
| 20260507064551 | 47 | 0 | 0.0 | 6.0 | 0.02 | 0.31 | 0.02 | 92 | 1009.4 |
| 20260507063049 | 47 | 322 | 0.0 | 4.0 | 0.02 | 0.31 | 0.02 | 91 | 1008.9 |
| 20260507061548 | 48 | 5 | 0.0 | 7.0 | 0.02 | 0.31 | 0.02 | 90 | 1008.8 |
| 20260507060056 | 48 | 19 | 2.0 | 8.0 | 0.00 | 0.29 | 0.00 | 90 | 1008.7 |
| 20260507054555 | 48 | 348 | 2.0 | 7.0 | 0.00 | 0.29 | 0.00 | 90 | 1008.5 |
| 20260507053053 | 48 | 339 | 1.0 | 4.0 | 0.00 | 0.29 | 0.00 | 89 | 1008.4 |
| 20260507051553 | 49 | 355 | 2.0 | 9.0 | 0.00 | 0.29 | 0.00 | 89 | 1008.5 |
| 20260507050052 | 49 | 34 | 4.0 | 8.0 | 0.00 | 0.29 | 0.00 | 89 | 1008.9 |
| 20260507044550 | 49 | 327 | 1.0 | 9.0 | 0.00 | 0.29 | 0.00 | 89 | 1009.0 |
| 20260507043049 | 49 | 350 | 2.0 | 8.0 | 0.00 | 0.29 | 0.00 | 89 | 1008.9 |
| 20260507041550 | 49 | 331 | 2.0 | 10.0 | 0.00 | 0.29 | 0.00 | 89 | 1009.1 |
| 20260507040051 | 49 | 331 | 4.0 | 10.0 | 0.00 | 0.29 | 0.00 | 88 | 1009.1 |
| 20260507034552 | 49 | 323 | 2.0 | 10.0 | 0.00 | 0.29 | 0.29 | 89 | 1008.6 |
| 20260507033050 | 49 | 33 | 2.0 | 11.0 | 0.00 | 0.29 | 0.29 | 88 | 1008.7 |
| 20260507031547 | 49 | 11 | 2.0 | 11.0 | 0.00 | 0.29 | 0.29 | 88 | 1009.0 |
| 20260507030057 | 50 | 0 | 4.0 | 11.0 | 0.00 | 0.29 | 0.29 | 88 | 1009.1 |
| 20260507024550 | 50 | 5 | 3.0 | 10.0 | 0.00 | 0.29 | 0.29 | 88 | 1009.2 |
| 20260507023051 | 50 | 360 | 2.0 | 11.0 | 0.00 | 0.29 | 0.29 | 88 | 1009.3 |
| 20260507021604 | 50 | 0 | 4.0 | 14.0 | 0.00 | 0.29 | 0.29 | 89 | 1009.1 |
| 20260507020105 | 51 | 61 | 3.0 | 14.0 | 0.00 | 0.29 | 0.29 | 89 | 1009.0 |
| 20260507014611 | 52 | 46 | 3.0 | 12.0 | 0.00 | 0.29 | 0.29 | 91 | 1009.2 |
| 20260507013055 | 53 | 19 | 2.0 | 13.0 | 0.00 | 0.29 | 0.29 | 89 | 1008.7 |
| 20260507011551 | 57 | 310 | 4.0 | 18.0 | 0.00 | 0.29 | 0.29 | 87 | 1008.1 |
| 20260507010105 | 59 | 268 | 1.0 | 4.0 | 0.00 | 0.29 | 0.29 | 94 | 1007.5 |
| 20260507004550 | 59 | 261 | 0.0 | 6.0 | 0.00 | 0.29 | 0.29 | 94 | 1007.2 |
| 20260507003049 | 59 | 0 | 0.0 | 0.0 | 0.00 | 0.29 | 0.29 | 94 | 1007.2 |
| 20260507001551 | 59 | 0 | 0.0 | 0.0 | 0.00 | 0.29 | 0.29 | 94 | 1007.0 |
| 20260507000049 | 59 | 0 | 0.0 | 0.0 | 0.00 | 0.29 | 0.29 | 94 | 1006.9 |
| 20260506234548 | 59 | 0 | 0.0 | 2.0 | 0.00 | 0.29 | 0.29 | 94 | 1006.7 |
| 20260506233052 | 60 | 0 | 0.0 | 1.0 | 0.00 | 0.29 | 0.29 | 94 | 1006.8 |
| 20260506231551 | 60 | 0 | 0.0 | 4.0 | 0.00 | 0.29 | 0.29 | 93 | 1006.8 |
| 20260506230100 | 60 | 256 | 0.0 | 9.0 | 0.00 | 0.29 | 0.29 | 93 | 1006.7 |
| 20260506224556 | 60 | 225 | 4.0 | 9.0 | 0.00 | 0.29 | 0.29 | 93 | 1006.5 |
| 20260506223054 | 60 | 0 | 1.0 | 6.0 | 0.00 | 0.29 | 0.29 | 93 | 1006.1 |
| 20260506221553 | 60 | 203 | 0.0 | 8.0 | 0.00 | 0.29 | 0.29 | 93 | 1006.1 |
| 20260506220053 | 60 | 0 | 0.0 | 3.0 | 0.00 | 0.29 | 0.29 | 93 | 1005.9 |
| 20260506214547 | 60 | 169 | 0.0 | 5.0 | 0.01 | 0.29 | 0.29 | 93 | 1005.8 |
| 20260506213049 | 60 | 0 | 0.0 | 4.0 | 0.02 | 0.29 | 0.29 | 93 | 1005.9 |
| 20260506211552 | 60 | 0 | 0.0 | 5.0 | 0.02 | 0.29 | 0.29 | 93 | 1005.8 |
| 20260506210057 | 60 | 218 | 1.0 | 8.0 | 0.02 | 0.29 | 0.29 | 93 | 1005.7 |
| 20260506204554 | 60 | 0 | 1.0 | 8.0 | 0.01 | 0.28 | 0.28 | 93 | 1005.6 |
| 20260506203054 | 60 | 229 | 1.0 | 7.0 | 0.01 | 0.27 | 0.27 | 93 | 1005.6 |
| 20260506201612 | 60 | 0 | 2.0 | 8.0 | 0.02 | 0.27 | 0.27 | 93 | 1005.9 |
| 20260506200049 | 60 | 219 | 2.0 | 11.0 | 0.03 | 0.27 | 0.27 | 93 | 1006.1 |